Time,TemperatureF,DewpointF,PressureIn,WindDirection,WindDirectionDegrees,WindSpeedMPH,WindSpeedGustMPH,Humidity,HourlyPrecipIn,Conditions,Clouds,dailyrainin,SoftwareType,DateUTC
2013-01-31 08:03:00,25.0,20.0,-100.00,NE,50,0.0,1.0,80,-99.99,,,-99.99,,2013-01-31 14:03:00,
2013-01-31 08:11:00,25.0,20.0,-100.00,SSW,200,0.0,1.0,80,-99.99,,,-99.99,,2013-01-31 14:11:00,
2013-01-31 08:22:00,25.0,20.0,-100.00,SSW,200,0.0,1.0,80,-99.99,,,-99.99,,2013-01-31 14:22:00,
2013-01-31 08:32:00,25.0,20.0,-100.00,SSW,200,1.0,1.0,81,-99.99,,,-99.99,,2013-01-31 14:32:00,
2013-01-31 08:42:00,26.0,20.0,-100.00,SSW,195,1.0,1.0,80,-99.99,,,-99.99,,2013-01-31 14:42:00,
2013-01-31 08:52:00,26.0,20.0,-100.00,SSW,195,1.0,1.0,80,-99.99,,,-99.99,,2013-01-31 14:52:00,
2013-01-31 09:03:00,26.0,20.0,-100.00,South,185,1.0,1.0,76,-99.99,,,-99.99,,2013-01-31 15:03:00,
2013-01-31 09:12:00,27.0,20.0,-100.00,West,270,1.0,1.0,75,-99.99,,,-99.99,,2013-01-31 15:12:00,
2013-01-31 09:22:00,27.0,20.0,-100.00,West,270,1.0,1.0,75,-99.99,,,-99.99,,2013-01-31 15:22:00,
2013-01-31 09:32:00,29.0,21.0,-100.00,WSW,240,1.0,1.0,70,-99.99,,,-99.99,,2013-01-31 15:32:00,
2013-01-31 09:42:00,29.0,20.0,-100.00,WSW,240,1.0,1.0,68,-99.99,,,-99.99,,2013-01-31 15:42:00,
2013-01-31 09:51:00,29.0,20.0,-100.00,WSW,240,1.0,1.0,68,-99.99,,,-99.99,,2013-01-31 15:51:00,
2013-01-31 10:03:00,31.0,20.0,-100.00,SW,225,1.0,2.0,63,-99.99,,,-99.99,,2013-01-31 16:03:00,
2013-01-31 10:12:00,31.0,19.0,-100.00,West,275,1.0,2.0,61,-99.99,,,-99.99,,2013-01-31 16:12:00,
2013-01-31 10:22:00,31.0,19.0,-100.00,West,275,1.0,2.0,61,-99.99,,,-99.99,,2013-01-31 16:22:00,
2013-01-31 10:33:00,32.0,20.0,-100.00,SW,230,1.0,2.0,60,-99.99,,,-99.99,,2013-01-31 16:33:00,
2013-01-31 10:42:00,33.0,20.0,-100.00,WSW,245,1.0,2.0,57,-99.99,,,-99.99,,2013-01-31 16:42:00,
2013-01-31 10:50:00,35.0,22.0,-100.00,NW,315,1.0,2.0,58,-99.99,,,-99.99,,2013-01-31 16:50:00,
2013-01-31 10:52:00,33.0,20.0,-100.00,WSW,245,1.0,2.0,57,-99.99,,,-99.99,,2013-01-31 16:52:00,
2013-01-31 11:02:00,34.0,21.0,-100.00,SW,225,1.0,2.0,57,-99.99,,,-99.99,,2013-01-31 17:02:00,
2013-01-31 11:12:00,34.0,21.0,-100.00,West,265,1.0,2.0,58,-99.99,,,-99.99,,2013-01-31 17:12:00,
2013-01-31 11:23:00,34.0,21.0,-100.00,West,265,1.0,2.0,58,-99.99,,,-99.99,,2013-01-31 17:23:00,
2013-01-31 11:32:00,35.0,22.0,-100.00,NW,315,1.0,2.0,58,-99.99,,,-99.99,,2013-01-31 17:32:00,
2013-01-31 11:43:00,35.0,22.0,-100.00,NW,315,1.0,2.0,58,-99.99,,,-99.99,,2013-01-31 17:43:00,
2013-01-31 12:03:00,36.0,22.0,-100.00,West,260,2.0,3.0,57,-99.99,,,-99.99,,2013-01-31 18:03:00,
2013-01-31 12:12:00,37.0,23.0,-100.00,West,275,2.0,3.0,57,-99.99,,,-99.99,,2013-01-31 18:12:00,
2013-01-31 12:22:00,37.0,23.0,-100.00,West,275,2.0,3.0,57,-99.99,,,-99.99,,2013-01-31 18:22:00,
2013-01-31 12:32:00,35.0,23.0,-100.00,West,275,2.0,2.0,60,-99.99,,,-99.99,,2013-01-31 18:32:00,
2013-01-31 12:43:00,37.0,24.0,-100.00,West,270,1.0,2.0,59,-99.99,,,-99.99,,2013-01-31 18:43:00,
2013-01-31 12:52:00,37.0,24.0,-100.00,West,270,1.0,2.0,59,-99.99,,,-99.99,,2013-01-31 18:52:00,
2013-01-31 13:02:00,36.0,23.0,-100.00,West,270,2.0,3.0,59,-99.99,,,-99.99,,2013-01-31 19:02:00,
2013-01-31 13:12:00,36.0,22.0,-100.00,West,265,2.0,3.0,57,-99.99,,,-99.99,,2013-01-31 19:12:00,
2013-01-31 13:22:00,36.0,22.0,-100.00,West,265,2.0,3.0,57,-99.99,,,-99.99,,2013-01-31 19:22:00,
2013-01-31 13:32:00,34.0,23.0,-100.00,West,270,2.0,4.0,63,-99.99,,,-99.99,,2013-01-31 19:32:00,
2013-01-31 13:42:00,32.0,26.0,-100.00,West,275,2.0,4.0,78,-99.99,,,-99.99,,2013-01-31 19:42:00,
2013-01-31 13:52:00,32.0,26.0,-100.00,West,275,2.0,4.0,78,-99.99,,,-99.99,,2013-01-31 19:52:00,
2013-01-31 14:02:00,31.0,28.0,-100.00,West,270,2.0,3.0,89,-99.99,,,-99.99,,2013-01-31 20:02:00,
2013-01-31 14:11:00,30.0,26.0,-100.00,WNW,285,2.0,3.0,85,-99.99,,,-99.99,,2013-01-31 20:11:00,
2013-01-31 14:22:00,30.0,26.0,-100.00,WNW,285,2.0,3.0,85,-99.99,,,-99.99,,2013-01-31 20:22:00,
2013-01-31 14:31:00,29.0,26.0,-100.00,WNW,295,2.0,4.0,87,-99.99,,,-99.99,,2013-01-31 20:31:00,
2013-01-31 14:42:00,29.0,25.0,-100.00,WNW,285,2.0,3.0,87,-99.99,,,-99.99,,2013-01-31 20:42:00,
2013-01-31 14:52:00,29.0,25.0,-100.00,WNW,285,2.0,3.0,87,-99.99,,,-99.99,,2013-01-31 20:52:00,
2013-01-31 15:02:00,28.0,25.0,-100.00,West,275,2.0,3.0,87,-99.99,,,-99.99,,2013-01-31 21:02:00,
2013-01-31 15:12:00,28.0,24.0,-100.00,West,265,3.0,4.0,87,-99.99,,,-99.99,,2013-01-31 21:12:00,
2013-01-31 15:22:00,28.0,24.0,-100.00,West,265,3.0,4.0,87,-99.99,,,-99.99,,2013-01-31 21:22:00,
2013-01-31 15:32:00,28.0,23.0,-100.00,WNW,285,1.0,3.0,82,-99.99,,,-99.99,,2013-01-31 21:32:00,
2013-01-31 15:42:00,28.0,22.0,-100.00,West,275,2.0,3.0,79,-99.99,,,-99.99,,2013-01-31 21:42:00,
2013-01-31 15:52:00,28.0,22.0,-100.00,West,275,2.0,3.0,79,-99.99,,,-99.99,,2013-01-31 21:52:00,
2013-01-31 16:03:00,28.0,22.0,-100.00,WNW,290,2.0,3.0,77,-99.99,,,-99.99,,2013-01-31 22:03:00,
2013-01-31 16:11:00,27.0,21.0,-100.00,West,270,3.0,4.0,79,-99.99,,,-99.99,,2013-01-31 22:11:00,
2013-01-31 16:22:00,27.0,21.0,-100.00,West,270,3.0,4.0,79,-99.99,,,-99.99,,2013-01-31 22:22:00,
2013-01-31 16:33:00,27.0,20.0,-100.00,WSW,255,2.0,3.0,76,-99.99,,,-99.99,,2013-01-31 22:33:00,
2013-01-31 16:42:00,27.0,19.0,-100.00,WNW,295,2.0,3.0,71,-99.99,,,-99.99,,2013-01-31 22:42:00,
2013-01-31 16:51:00,27.0,19.0,-100.00,WNW,295,2.0,3.0,71,-99.99,,,-99.99,,2013-01-31 22:51:00,
2013-01-31 17:02:00,26.0,14.0,-100.00,WNW,295,3.0,4.0,58,-99.99,,,-99.99,,2013-01-31 23:02:00,
2013-01-31 17:12:00,26.0,12.0,-100.00,WNW,300,2.0,4.0,56,-99.99,,,-99.99,,2013-01-31 23:12:00,
2013-01-31 17:22:00,26.0,12.0,-100.00,WNW,300,2.0,4.0,56,-99.99,,,-99.99,,2013-01-31 23:22:00,
2013-01-31 17:30:00,23.0,6.0,-100.00,WNW,295,2.0,4.0,48,-99.99,,,-99.99,,2013-01-31 23:30:00,
2013-01-31 17:32:00,24.0,11.0,-100.00,NW,305,2.0,3.0,55,-99.99,,,-99.99,,2013-01-31 23:32:00,
2013-01-31 17:42:00,24.0,11.0,-100.00,WNW,285,2.0,3.0,56,-99.99,,,-99.99,,2013-01-31 23:42:00,
2013-01-31 17:52:00,24.0,11.0,-100.00,WNW,285,2.0,3.0,56,-99.99,,,-99.99,,2013-01-31 23:52:00,
2013-01-31 18:01:00,23.0,9.0,-100.00,West,280,2.0,3.0,54,-99.99,,,-99.99,,2013-02-01 00:01:00,
2013-01-31 18:11:00,23.0,6.0,-100.00,WNW,295,2.0,4.0,48,-99.99,,,-99.99,,2013-02-01 00:11:00,
2013-01-31 18:22:00,23.0,6.0,-100.00,WNW,295,2.0,4.0,48,-99.99,,,-99.99,,2013-02-01 00:22:00,
2013-01-31 18:42:00,22.0,4.0,-100.00,NW,305,2.0,4.0,47,-99.99,,,-99.99,,2013-02-01 00:42:00,
2013-01-31 18:52:00,21.0,5.0,-100.00,WNW,300,1.0,3.0,50,-99.99,,,-99.99,,2013-02-01 00:52:00,
2013-01-31 19:01:00,21.0,5.0,-100.00,WNW,300,1.0,3.0,50,-99.99,,,-99.99,,2013-02-01 01:01:00,
2013-01-31 19:11:00,21.0,5.0,-100.00,NW,305,1.0,2.0,50,-99.99,,,-99.99,,2013-02-01 01:11:00,
2013-01-31 19:21:00,21.0,5.0,-100.00,NW,305,1.0,2.0,50,-99.99,,,-99.99,,2013-02-01 01:21:00,
2013-01-31 19:32:00,20.0,5.0,-100.00,WNW,295,1.0,2.0,51,-99.99,,,-99.99,,2013-02-01 01:32:00,
2013-01-31 19:42:00,20.0,6.0,-100.00,NW,305,1.0,2.0,54,-99.99,,,-99.99,,2013-02-01 01:42:00,
2013-01-31 19:52:00,20.0,6.0,-100.00,NW,305,1.0,2.0,54,-99.99,,,-99.99,,2013-02-01 01:52:00,
2013-01-31 20:02:00,20.0,6.0,-100.00,NW,310,2.0,2.0,55,-99.99,,,-99.99,,2013-02-01 02:02:00,
2013-01-31 20:11:00,20.0,6.0,-100.00,NW,305,2.0,3.0,55,-99.99,,,-99.99,,2013-02-01 02:11:00,
2013-01-31 20:21:00,20.0,6.0,-100.00,NW,305,2.0,3.0,55,-99.99,,,-99.99,,2013-02-01 02:21:00,
2013-01-31 20:32:00,19.0,6.0,-100.00,WNW,290,2.0,3.0,56,-99.99,,,-99.99,,2013-02-01 02:32:00,
2013-01-31 20:42:00,19.0,4.0,-100.00,WNW,300,3.0,4.0,51,-99.99,,,-99.99,,2013-02-01 02:42:00,
2013-01-31 20:52:00,17.0,3.0,-100.00,WNW,285,3.0,3.0,53,-99.99,,,-99.99,,2013-02-01 02:52:00,
2013-01-31 21:02:00,17.0,3.0,-100.00,WNW,285,3.0,3.0,53,-99.99,,,-99.99,,2013-02-01 03:02:00,
2013-01-31 21:12:00,17.0,3.0,-100.00,WNW,295,2.0,4.0,53,-99.99,,,-99.99,,2013-02-01 03:12:00,
2013-01-31 21:21:00,17.0,3.0,-100.00,WNW,295,2.0,4.0,53,-99.99,,,-99.99,,2013-02-01 03:21:00,
2013-01-31 21:32:00,16.0,3.0,-100.00,WNW,300,2.0,3.0,56,-99.99,,,-99.99,,2013-02-01 03:32:00,
2013-01-31 21:42:00,15.0,3.0,-100.00,NW,315,2.0,3.0,58,-99.99,,,-99.99,,2013-02-01 03:42:00,
2013-01-31 21:51:00,15.0,3.0,-100.00,NW,315,2.0,3.0,58,-99.99,,,-99.99,,2013-02-01 03:51:00,
2013-01-31 22:02:00,15.0,3.0,-100.00,WNW,285,2.0,3.0,59,-99.99,,,-99.99,,2013-02-01 04:02:00,
2013-01-31 22:11:00,14.0,3.0,-100.00,WNW,285,2.0,3.0,61,-99.99,,,-99.99,,2013-02-01 04:11:00,
2013-01-31 22:21:00,14.0,3.0,-100.00,WNW,285,2.0,3.0,61,-99.99,,,-99.99,,2013-02-01 04:21:00,
2013-01-31 22:32:00,14.0,4.0,-100.00,West,280,2.0,2.0,63,-99.99,,,-99.99,,2013-02-01 04:32:00,
2013-01-31 22:41:00,13.0,4.0,-100.00,West,275,2.0,2.0,64,-99.99,,,-99.99,,2013-02-01 04:41:00,
2013-01-31 22:51:00,13.0,4.0,-100.00,West,275,2.0,2.0,64,-99.99,,,-99.99,,2013-02-01 04:51:00,
2013-01-31 23:03:00,13.0,4.0,-100.00,WNW,290,1.0,2.0,65,-99.99,,,-99.99,,2013-02-01 05:03:00,
2013-01-31 23:12:00,13.0,3.0,-100.00,West,265,2.0,3.0,62,-99.99,,,-99.99,,2013-02-01 05:12:00,
2013-01-31 23:22:00,13.0,3.0,-100.00,West,265,2.0,3.0,62,-99.99,,,-99.99,,2013-02-01 05:22:00,
2013-01-31 23:32:00,13.0,1.0,-100.00,WNW,285,2.0,3.0,58,-99.99,,,-99.99,,2013-02-01 05:32:00,
2013-01-31 23:42:00,13.0,1.0,-100.00,West,260,2.0,3.0,59,-99.99,,,-99.99,,2013-02-01 05:42:00,
2013-01-31 23:52:00,13.0,1.0,-100.00,West,260,2.0,3.0,59,-99.99,,,-99.99,,2013-02-01 05:52:00,